This is the latest recevied weather packets stored in our database for station/object AD8BV. If no packets are shown the sender has not sent any weather packets the latest 1 day(s).
| Time | Temp. | Humidity | Pressure | Rain* | Wind** | Luminosity | Snow |
|---|---|---|---|---|---|---|---|
| 1778045610 | 7.78° C | 65% | 1011.1 hPa | 0 mm | - | 0 W/m² | - |
| 1778045006 | 7.78° C | 66% | 1011.4 hPa | 0 mm | - | 0 W/m² | - |
| 1778044703 | 7.78° C | 67% | 1011.1 hPa | 0 mm | - | 0 W/m² | - |
| 1778044399 | 7.78° C | 65% | 1011 hPa | 0 mm | - | 0 W/m² | - |
| 1778044097 | 7.78° C | 64% | 1011 hPa | 0 mm | - | 0 W/m² | - |
| 1778043794 | 8.33° C | 64% | 1010.8 hPa | 0 mm | - | 0 W/m² | - |
| 1778043491 | 7.78° C | 64% | 1010.8 hPa | 0 mm | - | 0 W/m² | - |
| 1778042582 | 8.33° C | 65% | 1010.9 hPa | 0 mm | - | 0 W/m² | - |
| 1778042279 | 8.33° C | 65% | 1010.9 hPa | 0 mm | - | 0 W/m² | - |
| 1778041675 | 8.33° C | 65% | 1011.1 hPa | 0 mm | - | 0 W/m² | - |
| 1778040768 | 8.33° C | 65% | 1011.1 hPa | 0 mm | - | 0 W/m² | - |
| 1778039859 | 8.33° C | 64% | 1010.7 hPa | 0 mm | - | 0 W/m² | - |
| 1778039556 | 8.33° C | 65% | 1010.8 hPa | 0 mm | - | 0 W/m² | - |
| 1778039253 | 8.33° C | 64% | 1010.7 hPa | 0 mm | - | 0 W/m² | - |
| 1778038950 | 8.33° C | 66% | 1010.7 hPa | 0 mm | - | 0 W/m² | - |
| 1778038041 | 8.33° C | 68% | 1010.5 hPa | 0 mm | - | 0 W/m² | - |
| 1778037738 | 8.33° C | 68% | 1010.7 hPa | 0 mm | - | 0 W/m² | - |
| 1778037435 | 8.33° C | 67% | 1010.7 hPa | 0 mm | - | 0 W/m² | - |
| 1778036224 | 8.33° C | 65% | 1010.9 hPa | 0 mm | - | 0 W/m² | - |
| 1778035314 | 8.33° C | 65% | 1010.8 hPa | 0 mm | - | 0 W/m² | - |
| 1778035010 | 8.33° C | 66% | 1010.7 hPa | 0 mm | - | 0 W/m² | - |
| 1778034708 | 8.33° C | 65% | 1010.6 hPa | 0 mm | - | 0 W/m² | - |
| 1778034405 | 8.33° C | 65% | 1010.5 hPa | 0 mm | - | 0 W/m² | - |
| 1778034102 | 8.33° C | 68% | 1010.5 hPa | 0 mm | - | 0 W/m² | - |
| 1778033800 | 8.33° C | 66% | 1010.7 hPa | 0 mm | - | 0 W/m² | - |
* Rain latest hour (hover to see other rain measurements)
** Current wind speed in m/s (hover to see current wind gust speed)